Flag for Germany Weather past 2 weeks in Itzehoe, Schleswig-Holstein, Germany

Now
63 °F

Passing clouds.


Feels Like: 63 °F
Forecast: 57 / 74 °F
Wind: 10 mph from Northeast

Location: Hohn

Current Time: Sep 15, 2014 at 7:06:41 AM

Latest Report: Sep 15, 2014 at 6:20 AM


Visibility: 4 mi

Pressure: 30.12 "Hg

Humidity: 88%

Dew point: 59 °F

Location of ItzehoeLocation

Historic Weather in Itzehoe — Graph

°F

Itzehoe temperature yesterday

Maximum temperature yesterday: 64 °F (at 12:20 PM)
Minimum temperature yesterday: 59 °F (at 12:20 AM)
Average temperature yesterday: 61 °F

Past Weeks' High & Low Weather Summary

 TemperatureHumidityPressure
High75 °F (Sep 5, 2:20 PM)100% (Sep 1, 1:20 AM)30.36 "Hg (Sep 1, 1:20 AM)
Low46 °F (Sep 12, 3:20 AM)47% (Sep 4, 2:20 PM)29.86 "Hg (Aug 31, 5:20 AM)
Average60 °F84%30.09 "Hg
* Reported Aug 31 5:20 AM — Sep 15 5:20 AM, Itzehoe, Weather by CustomWeather, © 2014

Note: Actual official high and low records may vary slightly from our data, if they occured in-between our weather recording intervals... More about our weather records

Advertising

Itzehoe weather history for previous 24 hours

 ConditionsComfort  
Time TempWeatherWind HumidityBarometerVisibility
5:20 AM
Sep 15
63 °FFog.9 mph88%30.12 "Hg3 mi
4:20 AM63 °FMild.10 mph88%30.12 "Hg3 mi
3:20 AM61 °FCool.9 mph94%30.15 "Hg3 mi
2:20 AM61 °FCool.14 mph94%30.15 "Hg3 mi
1:20 AM61 °FCool.13 mph94%30.15 "Hg1 mi
12:20 AM61 °FCool.16 mph94%30.18 "Hg1 mi
11:20 PM
Sep 14
61 °FCool.10 mph94%30.15 "Hg2 mi
10:20 PM63 °FMild.14 mph94%30.15 "Hg4 mi
9:20 PM63 °FMild.10 mph88%30.15 "Hg4 mi
8:20 PM63 °FMild.10 mph88%30.15 "Hg3 mi
7:20 PM63 °FMild.9 mph88%30.15 "Hg4 mi
6:20 PM64 °FMild.13 mph88%30.15 "Hg4 mi
5:20 PM64 °FMild.12 mph88%30.15 "Hg4 mi
4:20 PM64 °FMild.10 mph88%30.15 "Hg4 mi
3:20 PM64 °FMild.12 mph88%30.15 "Hg4 mi
2:20 PM63 °FMild.10 mph94%30.15 "Hg2 mi
1:20 PM63 °FMild.7 mph94%30.15 "Hg3 mi
12:20 PM64 °FMild.6 mph88%30.15 "Hg4 mi
11:20 AM61 °FCool.2 mph88%30.18 "Hg5 mi
10:20 AM61 °FCool.5 mph88%30.18 "Hg6 mi
9:20 AM61 °FCool.6 mph88%30.18 "Hg6 mi
8:20 AM59 °FCool.6 mph94%30.18 "Hg4 mi
7:20 AM59 °FCool.6 mph88%30.18 "Hg4 mi
Weather by CustomWeather, © 2014

See weather overviewHow to use our weather pages